COSMOS 1975

Satellite information

Favourite Embed

Satellite Type and Status

PAYLOADIN ORBIT

Key statistics

Satellite COSMOS 1975 at a glance.

Uptime

13358

Days in orbit

Revolutions

≈ 15.2

Per day

Orbit

LEO

Low Earth Orbit

Inclination

82.5

Latest

Satellite identification and parameters

Extended collection of information and parameters for COSMOS 1975.

Object identification

Identified? True

Debris? False

Object name: COSMOS 1975

International designator: 1988-093A

Object number (NORAD): 19573

Object ID (CCSDS): 19573

Country: COMMONWEALTH OF INDEPENDENT STATES (CIS)

Current information (Y/N): Y

RCS size: LARGE

Orbital parameters

Period: 94.578 minutes

Inclination: 82.5229 deg

SMA: 6876.293 km

Apoapsis: 507.558 km

Periapsis: 488.757 km

RAAN: 63.205 deg

Eccentricy: 0.0013671

Argument of periapsis: 159.447 deg

Mean anomaly: 200.7319 deg

Mean motion: 15.22548802 rev/day

Mean motion (dot): 0.0000783 rev/day2

B* drag term: 0.00033529 1/REarth

Two-line elements (TLE)

Creation date: May 8, 2025, 3:01 a.m.

Reference frame: TEME

Reference center: EARTH

Epoch: May 7, 2025, 8:03 p.m. UTC

TLE line 0: 0 COSMOS 1975

TLE line 1: 1 19573U 88093A 25127.83546985 .00007830 00000-0 33529-3 0 9991

TLE line 2: 2 19573 82.5229 63.2050 0013671 159.4470 200.7319 15.22548802972781

Live tracking on map

Real-time ground track for satellite COSMOS 1975.

In-orbit conjunctions

A list of the most updated potential collisions computed for object COSMOS 1975.

Target Orbit TCA Probability of collision Miss distance Type
CZ-6A DEB LEO 2025-04-28 02:58:17 0.0002873956 716.0 (m) DEBRIS
COSMOS 249 DEB * LEO 2025-04-10 02:01:02 0.0001367002 710.0 (m) DEBRIS
COSMOS 2251 DEB LEO 2024-11-09 12:24:39 0.0001392593 195.0 (m) DEBRIS

Associated space launch

Tselina-D satellites provided detailed observation of radio sources detected by the smaller Tselina-O satellites as part of the Tselina ELINT system.

COSMOS 1975 was lifted into orbit during the mission ‘Tsiklon-3 | Tselina-D 66’, on board a Tsiklon-3 space rocket.

The launch took place on Oct. 11, 1988, 8:02 a.m. from 32/1.

For more information about the launch, click the button.

Launch to space Tsiklon-3 | Tselina-D 66
Tsiklon-3 | Tselina-D 66

Agency: N/A

Status: Launch Successful

Launch date: Oct. 11, 1988, 8:02 a.m. UTC

Rocket: Tsiklon-3

Launch pad: 32/1

Location: Plesetsk Cosmodrome, Russian Federation

...

Latest news about this satellite

There are no fresh news available about this satellite. Check back as we update our databases every day.


Newsletter sign-up

Weekly statistics, charts and insights to help you stay on top of the space industry.